This is the latest recevied weather packets stored in our database for station/object N3AVN. If no packets are shown the sender has not sent any weather packets the latest 10 day(s).
| Time | Temp. | Humidity | Pressure | Rain* | Wind** | Luminosity | Snow |
|---|---|---|---|---|---|---|---|
| 1777488933 | 18.89° C | 49% | 1010.7 hPa | 0 mm | - | 290 W/m² | - |
| 1777488631 | 18.89° C | 48% | 1010.9 hPa | 0 mm | - | 239 W/m² | - |
| 1777488328 | 18.89° C | 49% | 1011 hPa | 0 mm | - | 261 W/m² | - |
| 1777488027 | 19.44° C | 48% | 1011.2 hPa | 0 mm | - | 252 W/m² | - |
| 1777487724 | 19.44° C | 49% | 1011 hPa | 0 mm | - | 251 W/m² | - |
| 1777487421 | 18.89° C | 49% | 1011.3 hPa | 0 mm | - | 341 W/m² | - |
| 1777487119 | 18.89° C | 49% | 1011.3 hPa | 0 mm | - | 311 W/m² | - |
| 1777486814 | 18.89° C | 51% | 1011.3 hPa | 0 mm | - | 469 W/m² | - |
| 1777486512 | 19.44° C | 50% | 1011.1 hPa | 0 mm | - | 527 W/m² | - |
| 1777486204 | 18.89° C | 49% | 1011.7 hPa | 0 mm | - | 471 W/m² | - |
| 1777485902 | 18.33° C | 53% | 1011.4 hPa | 0 mm | - | 336 W/m² | - |
| 1777485596 | 18.33° C | 51% | 1011.7 hPa | 0 mm | - | 300 W/m² | - |
| 1777485293 | 20° C | 51% | 1011.7 hPa | 0 mm | - | 467 W/m² | - |
| 1777484989 | 19.44° C | 51% | 1011.8 hPa | 0 mm | - | 472 W/m² | - |
| 1777484686 | 18.89° C | 53% | 1011.8 hPa | 0 mm | - | 624 W/m² | - |
| 1777484383 | 18.33° C | 52% | 1011.9 hPa | 0 mm | - | 502 W/m² | - |
| 1777484078 | 18.89° C | 52% | 1012.1 hPa | 0 mm | - | 483 W/m² | - |
| 1777483775 | 18.89° C | 53% | 1012 hPa | 0 mm | - | 483 W/m² | - |
| 1777483472 | 18.33° C | 52% | 1012.5 hPa | 0 mm | - | 439 W/m² | - |
| 1777483166 | 18.33° C | 51% | 1012.5 hPa | 0 mm | - | 404 W/m² | - |
| 1777482863 | 18.33° C | 53% | 1012.6 hPa | 0 mm | - | 402 W/m² | - |
| 1777482558 | 18.33° C | 54% | 1012.7 hPa | 0 mm | - | 379 W/m² | - |
| 1777482256 | 17.78° C | 54% | 1012.6 hPa | 0 mm | - | 377 W/m² | - |
| 1777481953 | 18.33° C | 51% | 1012.7 hPa | 0 mm | - | 437 W/m² | - |
| 1777481651 | 17.78° C | 52% | 1012.9 hPa | 0 mm | - | 451 W/m² | - |
* Rain latest hour (hover to see other rain measurements)
** Current wind speed in m/s (hover to see current wind gust speed)